[[{"header":{"parameterUnit":"m.s-1","parameterCategory":2,"la1":30.2991,"la2":30.254,"lo1":-89.0895,"lo2":-89.0444,"dy":0.0017,"dx":0.0017,"nx":28,"ny":28,"refTime":"2025-07-27T09:00:00:Z","depth":"0","parameterNumber":2,"parameterNumberName":"U-component_of_CURRENTS"},"data":[0,0,0,0,0,0,0,0,0,0,0,0,0,0,0,0,0,0,0,0,0,0,0,0,0,0,0,0,0,0,0,0,0,0,0,0,0,0,0,0,0,0,0,0,0,0,0,0,0,0,0,0,0,0,0,0,0,0,0.2603,0.2602,0,0.2486,0.2484,0.2483,0.2406,0.2406,0.2406,0.2405,0.2238,0.2234,0.223,0,0,0,0,0,0,0,0,0,0,0,0,0,0.2697,0.2696,0.2604,0.2602,0.2601,0.2486,0.2484,0.2482,0.2406,0.2406,0.2406,0.2405,0.2239,0.2234,0.2229,0,0,0,0,0,0,0,0,0,0,0,0,0,0.2624,0.2696,0.2604,0.2551,0.2545,0.2486,0.2484,0.2482,0.2406,0.2406,0.2406,0.2405,0.2241,0.2235,0.2229,0.2199,0,0,0.221,0.2207,0,0,0,0,0,0,0,0,0.2628,0.262,0.256,0.2554,0.2548,0.2462,0.2456,0.2385,0.2407,0.2457,0.2405,0.2405,0.231,0.2298,0.2275,0.2192,0.2184,0.2209,0.2205,0.2203,0.2201,0,0,0,0,0,0,0,0.2634,0.2625,0.2555,0.2558,0.2551,0.251,0.25,0.2442,0.2385,0.2453,0.2447,0.2437,0.2306,0.2281,0.227,0.2182,0.2209,0.2204,0.22,0.2197,0.212,0.2122,0,0,0,0,0,0,0.2656,0.263,0.2559,0.2552,0.259,0.2509,0.2497,0.2488,0.2387,0.2372,0.2438,0.2434,0.2292,0.2278,0.2264,0.2282,0.2203,0.2197,0.2193,0.2118,0.212,0.2122,0,0,0,0,0,0,0.2658,0.265,0.2564,0.2589,0.2576,0.2509,0.2499,0.2486,0.2467,0.2376,0.236,0.2432,0.2291,0.2273,0.2227,0.2273,0.2194,0.2188,0.2116,0.2119,0.2121,0.228,0,0,0,0,0,0,0.2661,0.2652,0.2647,0.2591,0.2575,0.2546,0.2499,0.2484,0.2462,0.2456,0.2366,0.2349,0.2289,0.2237,0.2221,0.2263,0.2183,0.2114,0.2117,0.212,0.2273,0.2288,0.2301,0,0,0,0,0,0.2665,0.2663,0.2648,0.2639,0.2573,0.2547,0.2536,0.2485,0.2462,0.2463,0.2403,0.2352,0.2246,0.2232,0.2213,0.2255,0.2113,0.2116,0.212,0.2266,0.2285,0.23,0,0,0,0,0,0,0.269,0.2653,0.2636,0.2619,0.2595,0.2536,0.2529,0.2496,0.2448,0.2445,0.2357,0.2337,0.2323,0.2261,0.2248,0.2243,0.2177,0.2178,0.2295,0.2312,0.2325,0.2334,0.2178,0,0,0,0,0,0.2699,0.2693,0.2654,0.2642,0.264,0.2589,0.257,0.2543,0.2496,0.2475,0.2412,0.2355,0.2323,0.2295,0.225,0.2231,0.224,0.225,0.2264,0.2276,0.2271,0.2373,0.2397,0.2135,0.2135,0.2135,0,0,0.2706,0.2683,0.2679,0.2648,0.2628,0.2621,0.2577,0.2568,0.2558,0.2464,0.2434,0.2399,0.233,0.2322,0.2311,0.2275,0.2357,0.2281,0.2292,0.228,0.238,0.2406,0.2429,0.2137,0.2137,0.2136,0,0,0.2717,0.2706,0.2706,0.2699,0.2679,0.2654,0.2659,0.2617,0.2602,0.2572,0.2522,0.2516,0.2431,0.2415,0.239,0.245,0.2434,0.2439,0.2508,0.2609,0.2632,0.2653,0.2711,0.2735,0.2441,0.2441,0.2442,0,0.2725,0.2714,0.2702,0.2704,0.2702,0.2676,0.2681,0.2665,0.2609,0.2619,0.2583,0.2542,0.2482,0.2504,0.2518,0.2485,0.2525,0.2454,0.2632,0.2652,0.2671,0.2725,0.275,0.2449,0.2448,0.2448,0.2447,0,0.2731,0.273,0.274,0.2734,0.2735,0.2742,0.2731,0.2739,0.2721,0.2707,0.2734,0.2678,0.2652,0.2653,0.2587,0.2688,0.2671,0.2651,0.26,0.2708,0.2757,0.278,0.2461,0.2458,0.2456,0.2454,0,0,0.2724,0.2739,0.2741,0.275,0.2756,0.2756,0.2784,0.2802,0.2831,0.2819,0.2858,0.2831,0.2823,0.2794,0.2754,0.2825,0.2981,0.2789,0.2791,0.2863,0.3197,0.3066,0.3078,0.3015,0.302,0.3023,0.3184,0,0.2729,0.2736,0.2747,0.2768,0.2777,0.2801,0.2826,0.2852,0.2867,0.2902,0.292,0.2931,0.2872,0.2874,0.2943,0.2967,0.3048,0.2937,0.3063,0.3066,0.2953,0.3102,0.2864,0.2978,0.3207,0.321,0.3213,0,0.272,0.2728,0.2745,0.2792,0.2804,0.2816,0.2881,0.2905,0.2976,0.2996,0.3049,0.3046,0.312,0.306,0.3207,0.3148,0.3176,0.3206,0.3214,0.3045,0.2978,0.2901,0.301,0.2876,0.3248,0.3245,0.3243,0,0.2698,0.273,0.2742,0.2755,0.2801,0.2832,0.2865,0.2934,0.2979,0.3064,0.3112,0.3196,0.3238,0.3326,0.3343,0.3306,0.3512,0.3471,0.339,0.338,0.3171,0.3134,0.317,0.3603,0.3603,0.3602,0.3602,0,0.2689,0.2704,0.2732,0.2741,0.2782,0.2824,0.2887,0.2941,0.3029,0.3106,0.3153,0.3228,0.3316,0.3412,0.3428,0.3478,0.3593,0.3429,0.3432,0.3216,0.3183,0.3043,0.3011,0.3608,0.3607,0.3606,0.3605,0,0.2668,0.2681,0.2703,0.2751,0.2767,0.28,0.2889,0.2953,0.3033,0.3139,0.3176,0.3301,0.3428,0.3489,0.363,0.3574,0.3507,0.3619,0.3328,0.3292,0.3041,0.3025,0.2968,0.2895,0.3571,0.3569,0.3568,0,0.2654,0.2659,0.27,0.2726,0.2749,0.2801,0.2856,0.294,0.3012,0.3181,0.3242,0.3384,0.3456,0.3589,0.3531,0.3557,0.3461,0.3339,0.3208,0.3018,0.3007,0.2897,0.2834,0.301,0.3004,0.2999,0.2995,0,0.2644,0.2657,0.2685,0.2735,0.278,0.2823,0.2901,0.2945,0.3071,0.3152,0.3285,0.3356,0.3432,0.3338,0.3327,0.3299,0.3112,0.3234,0.314,0.2656,0.2441,0.2372,0.2896,0.295,0.2954,0.2958,0.296,0.2962,0.264,0.266,0.2704,0.2755,0.2804,0.2841,0.2849,0.2937,0.3012,0.3084,0.3216,0.3216,0.3127,0.3059,0.3028,0.2721,0.2825,0.2564,0.2593,0.2524,0.2343,0.2741,0.2724,0.2727,0.273,0.2732,0.2734,0,0.2627,0.2669,0.2729,0.2769,0.2805,0.2829,0.2882,0.2861,0.2898,0.2943,0.2985,0.28,0.2639,0.2534,0.2231,0.2082,0.1987,0.2005,0.1805,0.1806,0.224,0.2096,0.1815,0.1815,0.1815,0.1815,0.1816,0.1816,0.2625,0.2672,0.271,0.2754,0.2776,0.2742,0.2736,0.2709,0.2691,0.2552,0.2401,0.2355,0.2191,0.1903,0.1626,0.1582,0.1473,0.134,0.1463,0.174,0.1794,0.1844,0.17,0.1341,0.134,0.0861,0.0857,0.0855]},{"header":{"parameterUnit":"m.s-1","parameterCategory":2,"la1":30.2991,"la2":30.254,"lo1":-89.0895,"lo2":-89.0444,"dy":0.0017,"dx":0.0017,"nx":28,"ny":28,"refTime":"2025-07-27T09:00:00:Z","depth":"0","parameterNumber":3,"parameterNumberName":"V-component_of_CURRENTS"},"data":[0,0,0,0,0,0,0,0,0,0,0,0,0,0,0,0,0,0,0,0,0,0,0,0,0,0,0,0,0,0,0,0,0,0,0,0,0,0,0,0,0,0,0,0,0,0,0,0,0,0,0,0,0,0,0,0,0,0,0.0288,0.0288,0,0.0288,0.0288,0.0288,0.029,0.029,0.029,0.029,0.0255,0.0255,0.0254,0,0,0,0,0,0,0,0,0,0,0,0,0,0.0262,0.0263,0.0288,0.0288,0.0288,0.0288,0.0288,0.0288,0.029,0.029,0.029,0.029,0.0256,0.0255,0.0254,0,0,0,0,0,0,0,0,0,0,0,0,0,0.0269,0.0263,0.0288,0.0289,0.0289,0.0288,0.0288,0.0288,0.029,0.029,0.029,0.029,0.0256,0.0255,0.0253,0.0243,0,0,0.0249,0.0248,0,0,0,0,0,0,0,0,0.0268,0.027,0.0288,0.0288,0.0289,0.0289,0.0266,0.0271,0.0289,0.0289,0.029,0.029,0.0263,0.0261,0.0262,0.0242,0.024,0.0249,0.0248,0.0247,0.0247,0,0,0,0,0,0,0,0.0268,0.027,0.0288,0.0288,0.0288,0.028,0.0281,0.0267,0.0275,0.0289,0.0289,0.0289,0.0263,0.0263,0.0261,0.024,0.0249,0.0248,0.0247,0.0246,0.0215,0.0215,0,0,0,0,0,0,0.0269,0.0269,0.0288,0.0288,0.0278,0.028,0.0282,0.0289,0.0276,0.0275,0.0289,0.0289,0.0266,0.0262,0.026,0.0264,0.0247,0.0246,0.0245,0.0215,0.0215,0.0215,0,0,0,0,0,0,0.0269,0.0271,0.0288,0.0278,0.0279,0.0281,0.0288,0.0289,0.0289,0.0277,0.0274,0.029,0.0265,0.0262,0.0253,0.0262,0.0245,0.0244,0.0215,0.0215,0.0215,0.0262,0,0,0,0,0,0,0.0268,0.0271,0.0274,0.0278,0.028,0.0292,0.0288,0.0288,0.0289,0.0289,0.0276,0.0273,0.0265,0.0255,0.0251,0.026,0.0243,0.0215,0.0215,0.0215,0.0261,0.0264,0.0267,0,0,0,0,0,0.0268,0.0278,0.0274,0.0276,0.0285,0.0293,0.0293,0.0293,0.0289,0.0294,0.0284,0.0274,0.0252,0.0254,0.025,0.0258,0.0214,0.0215,0.0215,0.0259,0.0263,0.0267,0,0,0,0,0,0,0.0266,0.0279,0.0275,0.0288,0.029,0.0293,0.0299,0.0294,0.029,0.0289,0.0275,0.0271,0.0265,0.0252,0.0254,0.0247,0.0231,0.023,0.0267,0.027,0.0273,0.0294,0.0242,0,0,0,0,0,0.0267,0.028,0.0283,0.0292,0.0297,0.0295,0.0297,0.0296,0.0294,0.0293,0.0285,0.0273,0.0262,0.0259,0.0245,0.0243,0.0254,0.0244,0.0247,0.025,0.0262,0.0299,0.0307,0.0215,0.0215,0.0215,0,0,0.0268,0.0276,0.0282,0.0293,0.0297,0.0313,0.0297,0.0304,0.0315,0.0288,0.0301,0.0281,0.0261,0.0262,0.0258,0.0253,0.0279,0.025,0.0253,0.0264,0.03,0.0309,0.0318,0.0215,0.0215,0.0215,0,0,0.0284,0.0286,0.0305,0.0314,0.0321,0.0322,0.0324,0.0328,0.0328,0.0328,0.0314,0.0305,0.0287,0.0285,0.0278,0.0288,0.0291,0.0275,0.0314,0.0349,0.0358,0.0366,0.0385,0.0395,0.0282,0.0282,0.0282,0,0.0284,0.0311,0.031,0.0334,0.0346,0.0329,0.0353,0.0351,0.035,0.0357,0.0337,0.0326,0.0303,0.0316,0.0315,0.0297,0.0314,0.0304,0.0356,0.0364,0.0371,0.039,0.04,0.0284,0.0284,0.0283,0.0283,0,0.0322,0.0341,0.0355,0.0382,0.0391,0.0408,0.0409,0.0414,0.0404,0.0404,0.0407,0.0379,0.038,0.0361,0.0338,0.0373,0.0367,0.0355,0.0354,0.0384,0.0401,0.041,0.0287,0.0286,0.0286,0.0285,0,0,0.0332,0.0373,0.0379,0.0403,0.042,0.0434,0.0453,0.047,0.0493,0.0474,0.0507,0.047,0.0458,0.0449,0.0422,0.0439,0.0488,0.0421,0.0421,0.0453,0.0566,0.0529,0.0535,0.0495,0.0497,0.0498,0.0555,0,0.0363,0.0416,0.0427,0.0475,0.0503,0.0503,0.0528,0.0538,0.0537,0.0562,0.0536,0.0548,0.0492,0.0495,0.0504,0.0504,0.0516,0.0474,0.0521,0.0522,0.0497,0.0546,0.0553,0.0603,0.0564,0.0566,0.0567,0,0.04,0.0432,0.0484,0.0533,0.0547,0.057,0.0612,0.0631,0.0653,0.0655,0.0662,0.0645,0.0666,0.0608,0.0638,0.0619,0.0594,0.058,0.0583,0.0541,0.0503,0.0566,0.0621,0.0553,0.0581,0.058,0.0579,0,0.0418,0.0474,0.0517,0.0535,0.0584,0.0609,0.0633,0.066,0.0689,0.0723,0.0755,0.0762,0.0791,0.0771,0.0736,0.0701,0.0768,0.072,0.0658,0.0654,0.0666,0.066,0.0675,0.0733,0.0733,0.0733,0.0733,0,0.0451,0.0487,0.0531,0.0558,0.0615,0.0639,0.0696,0.072,0.0765,0.0831,0.0811,0.0876,0.0838,0.0861,0.0797,0.0776,0.0825,0.0682,0.0677,0.0679,0.0674,0.0617,0.0573,0.0735,0.0734,0.0734,0.0734,0,0.0468,0.0493,0.055,0.0607,0.0625,0.0668,0.0734,0.0778,0.0823,0.0913,0.0936,0.0993,0.1046,0.0986,0.0978,0.0875,0.0804,0.0804,0.0797,0.0789,0.0633,0.0591,0.0617,0.0586,0.0748,0.0748,0.0748,0,0.0486,0.0517,0.0581,0.0612,0.064,0.07,0.0743,0.0796,0.0854,0.1,0.1057,0.1136,0.1222,0.1187,0.1041,0.0939,0.0842,0.0818,0.0733,0.0644,0.0595,0.0572,0.0543,0.0769,0.0769,0.0769,0.0769,0,0.0525,0.0544,0.0586,0.0642,0.0692,0.0756,0.0829,0.0887,0.0986,0.1097,0.1272,0.1365,0.1348,0.1284,0.1106,0.1003,0.0775,0.0808,0.0742,0.0636,0.0594,0.0555,0.0696,0.0768,0.0768,0.0768,0.0768,0.0768,0.0551,0.0584,0.0629,0.0682,0.0735,0.0816,0.0891,0.1,0.114,0.1346,0.1426,0.1604,0.1458,0.1248,0.1097,0.078,0.0786,0.0664,0.0629,0.0622,0.0566,0.0686,0.0726,0.0726,0.0726,0.0726,0.0726,0,0.0579,0.0612,0.0667,0.0734,0.0793,0.0823,0.0951,0.1055,0.1254,0.1464,0.1645,0.167,0.1499,0.1248,0.0838,0.064,0.0567,0.0532,0.0515,0.0497,0.0638,0.0609,0.0595,0.0596,0.0596,0.0596,0.0596,0.0596,0.0595,0.0643,0.0668,0.0767,0.0822,0.0934,0.1021,0.1198,0.1364,0.1621,0.1736,0.181,0.1593,0.1005,0.061,0.0514,0.0398,0.0373,0.0314,0.0406,0.0416,0.0425,0.0388,0.0329,0.0329,0.0202,0.02,0.0199]}],[{"header":{"parameterUnit":"m.s-1","parameterCategory":2,"la1":30.2991,"la2":30.254,"lo1":-89.0895,"lo2":-89.0444,"dy":0.0017,"dx":0.0017,"nx":28,"ny":28,"refTime":"2025-07-27T09:00:00:Z","depth":"2","parameterNumber":2,"parameterNumberName":"U-component_of_CURRENTS"},"data":[0,0,0,0,0,0,0,0,0,0,0,0,0,0,0,0,0,0,0,0,0,0,0,0,0,0,0,0,0,0,0,0,0,0,0,0,0,0,0,0,0,0,0,0,0,0,0,0,0,0,0,0,0,0,0,0,0,0,0.1933,0.1933,0,0.1909,0.1908,0.1908,0.1886,0.1886,0.1886,0.1886,0.1841,0.184,0.1838,0,0,0,0,0,0,0,0,0,0,0,0,0,0.1965,0.1965,0.1933,0.1933,0.1933,0.1909,0.1908,0.1908,0.1886,0.1886,0.1886,0.1886,0.1841,0.184,0.1838,0,0,0,0,0,0,0,0,0,0,0,0,0,0.1945,0.1964,0.1933,0.1921,0.192,0.1909,0.1908,0.1908,0.1886,0.1886,0.1886,0.1886,0.1841,0.184,0.1838,0.1829,0,0,0.1833,0.1832,0,0,0,0,0,0,0,0,0.1946,0.1944,0.1923,0.1922,0.1921,0.1902,0.1903,0.1881,0.1886,0.1896,0.1886,0.1886,0.1861,0.1858,0.185,0.1827,0.1825,0.1833,0.1832,0.1831,0.183,0,0,0,0,0,0,0,0.1948,0.1945,0.1921,0.1923,0.1921,0.1918,0.1915,0.1899,0.1877,0.1896,0.1894,0.1895,0.186,0.1852,0.1849,0.1824,0.1833,0.1831,0.183,0.1829,0.1842,0.1843,0,0,0,0,0,0,0.1955,0.1946,0.1922,0.1921,0.1936,0.1918,0.1914,0.1906,0.1878,0.1874,0.1895,0.1894,0.1855,0.1851,0.1847,0.188,0.1831,0.1829,0.1828,0.1841,0.1842,0.1844,0,0,0,0,0,0,0.1955,0.1953,0.1923,0.1935,0.1932,0.1917,0.1909,0.1906,0.1904,0.1878,0.1874,0.1898,0.1855,0.185,0.1848,0.1876,0.1829,0.1827,0.1839,0.1841,0.1843,0.1917,0,0,0,0,0,0,0.1956,0.1953,0.1949,0.1935,0.1931,0.1925,0.1909,0.1906,0.1905,0.1904,0.1879,0.1874,0.1854,0.1851,0.1847,0.1873,0.1826,0.1837,0.184,0.1842,0.1913,0.1921,0.1928,0,0,0,0,0,0.1957,0.194,0.1949,0.1947,0.1927,0.1926,0.1923,0.1912,0.1906,0.1909,0.1898,0.1875,0.1864,0.1851,0.1845,0.1872,0.1836,0.1839,0.1842,0.1909,0.1919,0.1928,0,0,0,0,0,0,0.1946,0.1936,0.1946,0.1926,0.1937,0.1923,0.1919,0.1918,0.191,0.1915,0.1885,0.188,0.1894,0.1871,0.1856,0.1885,0.185,0.1852,0.1902,0.1912,0.192,0.1934,0.1824,0,0,0,0,0,0.1947,0.1945,0.1939,0.1938,0.1934,0.1933,0.1931,0.1936,0.1929,0.1925,0.1911,0.1902,0.1902,0.1897,0.1891,0.1897,0.1908,0.1914,0.1922,0.1928,0.1938,0.2015,0.2032,0.1854,0.1854,0.1854,0,0,0.1948,0.1945,0.1944,0.1939,0.194,0.1943,0.1931,0.1941,0.1955,0.1922,0.193,0.1929,0.1911,0.1927,0.1931,0.191,0.1978,0.1932,0.1938,0.1944,0.202,0.2038,0.2054,0.1856,0.1856,0.1855,0,0,0.1954,0.1942,0.1943,0.1948,0.1962,0.1962,0.1968,0.1969,0.1976,0.1988,0.198,0.1995,0.1977,0.1982,0.1978,0.2023,0.2022,0.2026,0.2072,0.2147,0.2163,0.2177,0.2187,0.2202,0.2025,0.2025,0.2026,0,0.1965,0.1953,0.1948,0.1951,0.1958,0.197,0.198,0.1988,0.1997,0.2014,0.2,0.2027,0.2004,0.2043,0.2058,0.2042,0.2072,0.2036,0.216,0.2174,0.2187,0.2195,0.221,0.2029,0.2029,0.2028,0.2028,0,0.1964,0.1963,0.1962,0.1974,0.1984,0.1996,0.201,0.2032,0.2043,0.2057,0.2106,0.21,0.2118,0.2118,0.2094,0.218,0.2165,0.2167,0.2139,0.221,0.2212,0.2227,0.2035,0.2034,0.2032,0.2031,0,0,0.1974,0.1965,0.197,0.1979,0.1998,0.2008,0.2041,0.2072,0.2099,0.2132,0.2179,0.2192,0.2212,0.2211,0.221,0.2265,0.2359,0.226,0.2262,0.2274,0.2503,0.2426,0.2433,0.2407,0.2411,0.2414,0.2457,0,0.1984,0.1987,0.1987,0.2011,0.2009,0.2037,0.2055,0.2098,0.2132,0.2179,0.2222,0.2256,0.2242,0.2264,0.2327,0.2358,0.2407,0.2345,0.2428,0.2429,0.2358,0.2451,0.2204,0.2219,0.2471,0.2473,0.2475,0,0.1977,0.1983,0.1993,0.2017,0.202,0.2045,0.2098,0.2124,0.2195,0.2224,0.2301,0.2329,0.241,0.2392,0.2508,0.2481,0.25,0.2519,0.2522,0.2437,0.2381,0.2194,0.2235,0.2499,0.2497,0.2495,0.2494,0,0.1969,0.1988,0.1998,0.2004,0.2027,0.206,0.209,0.2146,0.2186,0.2275,0.2337,0.2418,0.2508,0.2553,0.26,0.2567,0.2732,0.268,0.2623,0.2615,0.2411,0.238,0.2775,0.2775,0.2775,0.2775,0.2774,0,0.1958,0.197,0.1998,0.2002,0.2031,0.2059,0.2107,0.215,0.2234,0.2295,0.2376,0.2454,0.2573,0.2672,0.2654,0.27,0.2781,0.2651,0.2645,0.2424,0.2395,0.2643,0.2627,0.2776,0.2776,0.2775,0.2775,0,0.1934,0.1946,0.1961,0.2001,0.202,0.2047,0.2126,0.2152,0.2251,0.2353,0.2395,0.255,0.2651,0.2736,0.2828,0.2794,0.2802,0.2796,0.2501,0.246,0.26,0.2588,0.2699,0.2697,0.2695,0.2694,0.2693,0,0.1913,0.1906,0.196,0.1977,0.2001,0.2046,0.2063,0.2146,0.2188,0.238,0.2426,0.2602,0.2642,0.2759,0.2732,0.2703,0.28,0.2491,0.2373,0.2622,0.2605,0.2595,0.2584,0.2111,0.2105,0.21,0.2096,0,0.1858,0.188,0.1896,0.1935,0.1965,0.2006,0.2061,0.2094,0.2197,0.2292,0.2389,0.2436,0.2549,0.2428,0.2478,0.242,0.2462,0.2392,0.2782,0.2174,0.2074,0.2055,0.2063,0.2054,0.2058,0.2062,0.2064,0.2066,0.1825,0.1834,0.1854,0.189,0.1937,0.198,0.1958,0.1996,0.2047,0.2121,0.2232,0.2221,0.2234,0.2138,0.2064,0.2047,0.2206,0.2094,0.2106,0.2124,0.2055,0.1959,0.19,0.1903,0.1906,0.1909,0.1911,0,0.1781,0.1806,0.1813,0.1864,0.1883,0.1938,0.1955,0.1889,0.1875,0.1923,0.1938,0.1751,0.167,0.1713,0.1585,0.1572,0.1533,0.1528,0.1449,0.1493,0.1531,0.1429,0.111,0.1107,0.1105,0.1103,0,0,0.1775,0.1757,0.176,0.178,0.1838,0.1796,0.1782,0.1674,0.164,0.1549,0.1503,0.1581,0.1638,0.1349,0.13,0.1188,0.1334,0.1138,0.178,0.1731,0.1766,0.1856,0.1749,0,0,0,0,0]},{"header":{"parameterUnit":"m.s-1","parameterCategory":2,"la1":30.2991,"la2":30.254,"lo1":-89.0895,"lo2":-89.0444,"dy":0.0017,"dx":0.0017,"nx":28,"ny":28,"refTime":"2025-07-27T09:00:00:Z","depth":"2","parameterNumber":3,"parameterNumberName":"V-component_of_CURRENTS"},"data":[0,0,0,0,0,0,0,0,0,0,0,0,0,0,0,0,0,0,0,0,0,0,0,0,0,0,0,0,0,0,0,0,0,0,0,0,0,0,0,0,0,0,0,0,0,0,0,0,0,0,0,0,0,0,0,0,0,0,0.011,0.011,0,0.0113,0.0113,0.0113,0.0119,0.012,0.012,0.012,0.0106,0.0106,0.0105,0,0,0,0,0,0,0,0,0,0,0,0,0,0.0091,0.0091,0.011,0.011,0.011,0.0113,0.0113,0.0113,0.0119,0.012,0.012,0.012,0.0106,0.0106,0.0105,0,0,0,0,0,0,0,0,0,0,0,0,0,0.0097,0.0092,0.011,0.0114,0.0115,0.0113,0.0113,0.0113,0.0119,0.012,0.012,0.012,0.0106,0.0106,0.0105,0.0094,0,0,0.0102,0.0102,0,0,0,0,0,0,0,0,0.0096,0.0097,0.0113,0.0114,0.0114,0.0117,0.0102,0.0106,0.0119,0.0117,0.012,0.012,0.0108,0.0107,0.0106,0.0093,0.0092,0.0102,0.0102,0.0101,0.0101,0,0,0,0,0,0,0,0.0096,0.0097,0.011,0.0114,0.0114,0.011,0.0111,0.0102,0.011,0.0117,0.0118,0.0119,0.0109,0.0107,0.0106,0.0092,0.0102,0.0101,0.0101,0.0101,0.0081,0.0081,0,0,0,0,0,0,0.0098,0.0097,0.011,0.011,0.0107,0.011,0.0112,0.0115,0.011,0.011,0.0119,0.012,0.0109,0.0107,0.0106,0.0108,0.0101,0.0101,0.01,0.0081,0.0081,0.0081,0,0,0,0,0,0,0.0097,0.0099,0.011,0.0104,0.0105,0.0111,0.0114,0.0115,0.0117,0.0112,0.0112,0.012,0.0109,0.0107,0.0103,0.0107,0.01,0.0099,0.0081,0.0081,0.0081,0.0102,0,0,0,0,0,0,0.0097,0.0099,0.0102,0.0104,0.0106,0.0115,0.0114,0.0115,0.0117,0.0118,0.0113,0.0112,0.0109,0.0104,0.0102,0.0105,0.0099,0.0081,0.0081,0.0081,0.0101,0.0102,0.0104,0,0,0,0,0,0.0096,0.0103,0.0102,0.0104,0.011,0.0115,0.0115,0.0119,0.0117,0.0121,0.0117,0.0112,0.0103,0.0104,0.0101,0.0104,0.0081,0.0081,0.0081,0.01,0.0102,0.0103,0,0,0,0,0,0,0.0095,0.0104,0.0104,0.0112,0.0115,0.0117,0.0121,0.0119,0.0118,0.0117,0.0112,0.011,0.0108,0.0101,0.0103,0.0098,0.0091,0.0091,0.0107,0.0108,0.0109,0.0122,0.0098,0,0,0,0,0,0.0096,0.0105,0.0108,0.0114,0.0117,0.0117,0.0119,0.012,0.0119,0.0119,0.0115,0.0109,0.0105,0.0103,0.0097,0.0094,0.0093,0.0093,0.0095,0.0096,0.0104,0.0115,0.0118,0.0081,0.0081,0.0081,0,0,0.0095,0.0103,0.0106,0.0115,0.0117,0.0128,0.0119,0.0123,0.0131,0.0117,0.0124,0.0112,0.0104,0.0103,0.0101,0.0099,0.0102,0.0096,0.0097,0.0105,0.0115,0.0119,0.0122,0.0081,0.0081,0.0081,0,0,0.0104,0.0106,0.0119,0.0125,0.0131,0.0133,0.0135,0.0136,0.0136,0.0136,0.0129,0.0122,0.0113,0.0112,0.0109,0.0112,0.0107,0.0106,0.0126,0.0135,0.0139,0.0142,0.0131,0.0133,0.0109,0.0109,0.0109,0,0.0103,0.0123,0.0122,0.0137,0.0148,0.0138,0.0155,0.0152,0.0151,0.0155,0.0142,0.0134,0.012,0.0128,0.0126,0.0116,0.0116,0.0122,0.0138,0.0142,0.0144,0.0133,0.0135,0.011,0.011,0.011,0.011,0,0.0127,0.0141,0.0149,0.0169,0.0178,0.0189,0.0189,0.019,0.0183,0.0183,0.0182,0.0161,0.0162,0.0149,0.0137,0.0149,0.0139,0.0138,0.0138,0.015,0.0136,0.0137,0.0111,0.0111,0.0111,0.011,0,0,0.0133,0.0161,0.0165,0.0183,0.0198,0.0209,0.0218,0.023,0.0245,0.0226,0.0245,0.0218,0.0206,0.0202,0.0183,0.0183,0.0187,0.017,0.017,0.0164,0.0198,0.0192,0.0193,0.0194,0.0195,0.0196,0.0175,0,0.0154,0.0192,0.0201,0.0236,0.0258,0.0256,0.0272,0.0278,0.0277,0.0289,0.0263,0.0271,0.0228,0.0229,0.022,0.0207,0.0195,0.0192,0.0183,0.0182,0.0181,0.0196,0.0213,0.0197,0.0176,0.0177,0.0177,0,0.018,0.0206,0.0245,0.0282,0.0291,0.031,0.0339,0.0351,0.0359,0.0358,0.0353,0.0337,0.033,0.0291,0.0268,0.0271,0.0232,0.0211,0.021,0.0203,0.0181,0.0184,0.0201,0.018,0.0179,0.0179,0.0179,0,0.0199,0.0237,0.0272,0.0286,0.0322,0.0339,0.0358,0.0375,0.0399,0.0408,0.0435,0.0407,0.0424,0.037,0.0321,0.0297,0.0301,0.0263,0.0213,0.0211,0.0223,0.0222,0.0239,0.0239,0.0239,0.0239,0.0239,0,0.0225,0.0253,0.0285,0.0309,0.0355,0.0369,0.0416,0.0427,0.0459,0.0521,0.0478,0.0528,0.0451,0.0442,0.0357,0.0307,0.0329,0.0223,0.0214,0.0228,0.0227,0.0213,0.0211,0.0238,0.0238,0.0238,0.0239,0,0.024,0.0259,0.0304,0.0349,0.0367,0.0401,0.0461,0.0498,0.0525,0.0606,0.0619,0.0636,0.0632,0.0542,0.0479,0.0383,0.0311,0.0282,0.0293,0.0286,0.0193,0.0192,0.0205,0.0205,0.0205,0.0205,0.0205,0,0.0251,0.0276,0.0335,0.0365,0.0387,0.0439,0.0483,0.0525,0.0584,0.0691,0.0748,0.0768,0.0801,0.069,0.0536,0.0384,0.0353,0.0284,0.0231,0.0204,0.0194,0.0193,0.0191,0.0243,0.0243,0.0244,0.0244,0,0.0277,0.0295,0.0333,0.0396,0.0447,0.0514,0.0591,0.0656,0.0741,0.0833,0.0965,0.0996,0.0898,0.0775,0.0563,0.045,0.0302,0.028,0.0281,0.025,0.0239,0.0229,0.0227,0.0245,0.0245,0.0245,0.0245,0.0245,0.0292,0.0321,0.037,0.0433,0.0488,0.0593,0.0683,0.0793,0.093,0.1083,0.1107,0.1146,0.0979,0.0708,0.0536,0.0332,0.0329,0.023,0.023,0.023,0.024,0.0229,0.0233,0.0233,0.0233,0.0233,0.0233,0,0.0315,0.0351,0.0405,0.049,0.0565,0.0601,0.0755,0.0868,0.1066,0.1158,0.1256,0.1089,0.0946,0.0739,0.0449,0.0271,0.0243,0.0203,0.0212,0.0213,0.0213,0.0221,0.021,0.0209,0.0209,0.0208,0,0,0.0328,0.0381,0.0414,0.0542,0.0611,0.076,0.0869,0.1035,0.1132,0.1242,0.1241,0.1216,0.098,0.0756,0.0538,0.0379,0.0325,0.0334,0.0373,0.0412,0.0414,0.0253,0.0269,0,0,0,0,0]}],[{"header":{"parameterUnit":"m.s-1","parameterCategory":2,"la1":30.2991,"la2":30.254,"lo1":-89.0895,"lo2":-89.0444,"dy":0.0017,"dx":0.0017,"nx":28,"ny":28,"refTime":"2025-07-27T09:00:00:Z","depth":"4","parameterNumber":2,"parameterNumberName":"U-component_of_CURRENTS"},"data":[0,0,0,0,0,0,0,0,0,0,0,0,0,0,0,0,0,0,0,0,0,0,0,0,0,0,0,0,0,0,0,0,0,0,0,0,0,0,0,0,0,0,0,0,0,0,0,0,0,0,0,0,0,0,0,0,0,0,0.0966,0.0967,0,0.0996,0.0996,0.0996,0.1025,0.1026,0.1026,0.1027,0.111,0.1111,0.1113,0,0,0,0,0,0,0,0,0,0,0,0,0,0.0949,0.0949,0.0966,0.0967,0.0967,0.0996,0.0996,0.0996,0.1025,0.1026,0.1027,0.1027,0.1109,0.1111,0.1113,0,0,0,0,0,0,0,0,0,0,0,0,0,0.0962,0.0948,0.0966,0.0987,0.099,0.0996,0.0996,0.0996,0.1025,0.1026,0.1027,0.1028,0.1109,0.1111,0.1113,0.111,0,0,0.1121,0.1122,0,0,0,0,0,0,0,0,0.0962,0.0963,0.0983,0.0986,0.0988,0.101,0.1021,0.1038,0.1025,0.1008,0.1027,0.1028,0.1083,0.1087,0.1086,0.1113,0.1117,0.1121,0.1123,0.1124,0.1124,0,0,0,0,0,0,0,0.0961,0.0962,0.0975,0.0984,0.0987,0.1001,0.1003,0.1024,0.1039,0.101,0.1013,0.102,0.1084,0.1083,0.1088,0.1118,0.1121,0.1123,0.1125,0.1126,0.1223,0.1224,0,0,0,0,0,0,0.0961,0.0961,0.0974,0.0976,0.098,0.1,0.1003,0.1,0.1037,0.1044,0.1019,0.1022,0.1079,0.1085,0.1092,0.1157,0.1124,0.1126,0.1127,0.1222,0.1223,0.1224,0,0,0,0,0,0,0.096,0.0961,0.0973,0.0972,0.0975,0.1,0.0996,0.1,0.1026,0.1045,0.1052,0.1044,0.108,0.1088,0.1131,0.1158,0.1127,0.1129,0.122,0.1222,0.1224,0.1244,0,0,0,0,0,0,0.0959,0.096,0.0968,0.0972,0.0975,0.099,0.0996,0.1,0.1029,0.1032,0.1068,0.1075,0.1081,0.1127,0.1133,0.1161,0.1131,0.1219,0.1221,0.1223,0.1242,0.1246,0.125,0,0,0,0,0,0.0958,0.0957,0.0968,0.0971,0.0981,0.099,0.0993,0.1012,0.1029,0.1039,0.1068,0.1075,0.1145,0.113,0.1137,0.1166,0.1218,0.1221,0.1223,0.124,0.1246,0.125,0,0,0,0,0,0,0.0953,0.096,0.0972,0.0974,0.0991,0.0997,0.1012,0.1026,0.1054,0.1069,0.1086,0.1095,0.1144,0.1151,0.1134,0.12,0.1184,0.1188,0.1195,0.12,0.1204,0.1204,0.1133,0,0,0,0,0,0.0956,0.0964,0.0971,0.0982,0.0987,0.1006,0.1018,0.1032,0.1053,0.1067,0.1097,0.1128,0.1154,0.1175,0.1199,0.1233,0.1247,0.1257,0.1261,0.1265,0.127,0.1318,0.1327,0.1233,0.1233,0.1233,0,0,0.0958,0.0968,0.0972,0.0984,0.0998,0.1008,0.1015,0.1039,0.106,0.1073,0.1122,0.1147,0.1167,0.1205,0.1228,0.1219,0.1297,0.1268,0.127,0.1274,0.1322,0.1331,0.1339,0.1234,0.1234,0.1234,0,0,0.0967,0.0975,0.0984,0.0993,0.102,0.1029,0.1042,0.1065,0.1088,0.113,0.1147,0.1188,0.1232,0.1249,0.1262,0.1303,0.1318,0.1317,0.1338,0.1385,0.1393,0.14,0.142,0.1429,0.1318,0.1318,0.1318,0,0.0976,0.0981,0.0991,0.1001,0.1013,0.1041,0.1052,0.1074,0.1116,0.1141,0.1155,0.123,0.1251,0.129,0.1306,0.1313,0.1335,0.1315,0.139,0.1397,0.1404,0.1423,0.1433,0.1319,0.1319,0.1319,0.1319,0,0.0978,0.0994,0.1,0.1023,0.1037,0.1052,0.1076,0.1111,0.1151,0.1177,0.1241,0.127,0.1317,0.1329,0.1332,0.1391,0.1388,0.1389,0.1375,0.1415,0.1432,0.1442,0.1321,0.1321,0.132,0.132,0,0,0.0974,0.0997,0.1005,0.1013,0.1047,0.1053,0.1099,0.1138,0.1171,0.1228,0.1274,0.1326,0.1357,0.1374,0.1389,0.1424,0.149,0.1433,0.1435,0.1448,0.1585,0.1467,0.1466,0.1511,0.1514,0.1515,0.1573,0,0.0981,0.0997,0.1012,0.1035,0.1039,0.1073,0.1103,0.1147,0.1201,0.1254,0.1303,0.1356,0.1369,0.14,0.1442,0.1484,0.1519,0.1474,0.1548,0.155,0.1437,0.1474,0.1522,0.158,0.1582,0.1584,0.1585,0,0.0976,0.099,0.1008,0.103,0.1035,0.1058,0.1113,0.1145,0.1223,0.1263,0.1335,0.1383,0.1456,0.1457,0.1557,0.1533,0.1567,0.1588,0.1591,0.1481,0.145,0.1536,0.1603,0.1601,0.16,0.1599,0.1598,0,0.0956,0.0984,0.1,0.1006,0.1038,0.1064,0.1092,0.116,0.1187,0.1286,0.1325,0.1419,0.1466,0.1543,0.1614,0.16,0.1709,0.1692,0.1611,0.1603,0.1682,0.1674,0.176,0.176,0.176,0.176,0.176,0,0.0937,0.095,0.0994,0.0997,0.1017,0.1049,0.1086,0.1132,0.1195,0.1227,0.1335,0.1377,0.1495,0.1575,0.1633,0.1653,0.1735,0.1619,0.1614,0.1687,0.1679,0.1688,0.1679,0.1762,0.1761,0.1761,0.1761,0,0.0896,0.0932,0.0944,0.0987,0.1008,0.1019,0.1066,0.1079,0.1161,0.1211,0.1248,0.1361,0.1464,0.1567,0.1678,0.165,0.1701,0.1687,0.1756,0.1754,0.1553,0.1545,0.1588,0.1584,0.1581,0.1579,0.1577,0,0.0867,0.0875,0.0927,0.0928,0.095,0.0978,0.0989,0.106,0.1078,0.1191,0.1204,0.1329,0.1406,0.1476,0.1581,0.1672,0.1659,0.1654,0.1598,0.1546,0.1539,0.1535,0.1531,0.1572,0.1571,0.157,0.157,0,0.0802,0.0836,0.0839,0.0843,0.0859,0.0865,0.0898,0.0911,0.0992,0.1087,0.1148,0.1218,0.131,0.1408,0.1484,0.1548,0.1642,0.1622,0.1627,0.1575,0.1528,0.1522,0.1521,0.1559,0.1561,0.1562,0.1562,0,0.0748,0.0727,0.0731,0.0717,0.0736,0.0725,0.0771,0.08,0.084,0.0993,0.1015,0.1167,0.1287,0.1343,0.1426,0.147,0.1443,0.1388,0.1405,0.1418,0.1337,0.1251,0.1198,0,0,0,0,0,0.0685,0.0628,0.0593,0.0571,0.0587,0.0604,0.0677,0.0732,0.0856,0.087,0.094,0.1039,0.1139,0.1221,0.1237,0.1336,0.1437,0.1344,0.1378,0.1501,0.1513,0.1435,0,0,0,0,0,0,0.063,0.0594,0.0543,0.0439,0.0416,0.0422,0.0478,0.0574,0.0604,0.0756,0.0838,0.0946,0.1084,0.1123,0.1206,0.123,0.1223,0.1446,0.1442,0.1494,0.1505,0.1515,0.1439,0,0,0,0,0]},{"header":{"parameterUnit":"m.s-1","parameterCategory":2,"la1":30.2991,"la2":30.254,"lo1":-89.0895,"lo2":-89.0444,"dy":0.0017,"dx":0.0017,"nx":28,"ny":28,"refTime":"2025-07-27T09:00:00:Z","depth":"4","parameterNumber":3,"parameterNumberName":"V-component_of_CURRENTS"},"data":[0,0,0,0,0,0,0,0,0,0,0,0,0,0,0,0,0,0,0,0,0,0,0,0,0,0,0,0,0,0,0,0,0,0,0,0,0,0,0,0,0,0,0,0,0,0,0,0,0,0,0,0,0,0,0,0,0,0,0.012,0.012,0,0.0117,0.0117,0.0117,0.0123,0.0123,0.0123,0.0123,0.0108,0.0107,0.0107,0,0,0,0,0,0,0,0,0,0,0,0,0,0.0112,0.0113,0.012,0.012,0.012,0.0117,0.0117,0.0117,0.0122,0.0123,0.0123,0.0123,0.0108,0.0107,0.0107,0,0,0,0,0,0,0,0,0,0,0,0,0,0.0113,0.0113,0.012,0.0122,0.0122,0.0117,0.0117,0.0117,0.0122,0.0123,0.0123,0.0123,0.0108,0.0108,0.0107,0.0097,0,0,0.0104,0.0104,0,0,0,0,0,0,0,0,0.0113,0.0114,0.0122,0.0122,0.0122,0.012,0.0109,0.0109,0.0122,0.0123,0.0123,0.0123,0.0111,0.011,0.0109,0.0096,0.0095,0.0104,0.0104,0.0103,0.0103,0,0,0,0,0,0,0,0.0113,0.0114,0.0119,0.0122,0.0122,0.0117,0.0117,0.0109,0.0115,0.0123,0.0123,0.0122,0.0111,0.011,0.0109,0.0095,0.0104,0.0103,0.0103,0.0103,0.0088,0.0088,0,0,0,0,0,0,0.0114,0.0114,0.0119,0.0119,0.0118,0.0117,0.0117,0.0121,0.0116,0.0115,0.0122,0.0122,0.0111,0.011,0.0108,0.0111,0.0103,0.0102,0.0102,0.0088,0.0088,0.0088,0,0,0,0,0,0,0.0114,0.0115,0.012,0.0116,0.0116,0.0117,0.012,0.0121,0.0122,0.0115,0.0115,0.0124,0.0111,0.0109,0.0105,0.011,0.0102,0.0101,0.0087,0.0088,0.0088,0.0107,0,0,0,0,0,0,0.0114,0.0115,0.0118,0.0116,0.0116,0.012,0.012,0.012,0.0121,0.0122,0.0116,0.0115,0.0111,0.0106,0.0104,0.0108,0.0101,0.0087,0.0087,0.0088,0.0106,0.0107,0.0109,0,0,0,0,0,0.0113,0.0119,0.0119,0.0119,0.0121,0.0121,0.012,0.0121,0.0121,0.0123,0.012,0.0115,0.0106,0.0105,0.0103,0.0107,0.0087,0.0087,0.0088,0.0105,0.0107,0.0109,0,0,0,0,0,0,0.0116,0.012,0.0119,0.0126,0.0124,0.0121,0.0124,0.0122,0.0121,0.0121,0.0114,0.0113,0.0111,0.0105,0.0105,0.0103,0.0096,0.0096,0.0111,0.0112,0.0114,0.012,0.01,0,0,0,0,0,0.0118,0.0124,0.0124,0.0127,0.0129,0.0125,0.0125,0.0124,0.0122,0.0122,0.0118,0.0113,0.0109,0.0108,0.0102,0.01,0.0089,0.0101,0.0103,0.0104,0.0107,0.0098,0.0099,0.0089,0.0089,0.0089,0,0,0.0119,0.0122,0.0125,0.0128,0.0128,0.0134,0.0126,0.0127,0.0132,0.0119,0.0125,0.0116,0.0109,0.0109,0.0108,0.0105,0.01,0.0104,0.0105,0.0108,0.0099,0.01,0.0101,0.0089,0.0089,0.0089,0,0,0.0124,0.0127,0.0135,0.0138,0.0138,0.0138,0.0139,0.0137,0.0137,0.0136,0.0131,0.0125,0.0119,0.0117,0.0115,0.012,0.0106,0.0117,0.0132,0.0123,0.0124,0.0124,0.0105,0.0104,0.012,0.012,0.012,0,0.0123,0.0137,0.0136,0.0145,0.0153,0.0143,0.0155,0.0151,0.0147,0.0151,0.0141,0.0134,0.0124,0.013,0.0131,0.0124,0.0112,0.0126,0.0125,0.0125,0.0126,0.0106,0.0104,0.0121,0.0121,0.0121,0.0121,0,0.0137,0.0148,0.0153,0.0166,0.0173,0.0179,0.0179,0.0179,0.0176,0.0174,0.0173,0.0156,0.0156,0.0149,0.014,0.0141,0.0129,0.0126,0.0121,0.0128,0.0107,0.0105,0.0122,0.0122,0.0122,0.0121,0,0,0.0137,0.0159,0.0162,0.0178,0.0187,0.0196,0.0203,0.0213,0.0227,0.0207,0.0222,0.0202,0.0191,0.0188,0.0173,0.0161,0.0146,0.0145,0.0144,0.0128,0.0119,0.0109,0.0106,0.0144,0.0144,0.0144,0.01,0,0.0149,0.0176,0.0184,0.0213,0.0231,0.0232,0.0248,0.0253,0.0252,0.0261,0.0236,0.0242,0.0207,0.0209,0.0189,0.0163,0.0143,0.0158,0.0114,0.0112,0.0104,0.0104,0.0144,0.0098,0.0098,0.0098,0.0097,0,0.0162,0.0183,0.0214,0.0252,0.0261,0.0278,0.0309,0.0321,0.0325,0.0326,0.0316,0.0295,0.0273,0.0245,0.019,0.0201,0.0161,0.0132,0.0129,0.0114,0.01,0.0092,0.0094,0.0094,0.0094,0.0094,0.0095,0,0.0173,0.0206,0.0236,0.0247,0.0284,0.0303,0.0325,0.0342,0.037,0.0369,0.0383,0.0345,0.0337,0.0278,0.0204,0.0201,0.0142,0.0132,0.0081,0.0079,0.0093,0.0092,0.0092,0.0092,0.0092,0.0093,0.0093,0,0.0187,0.0212,0.0246,0.0265,0.0314,0.0331,0.0384,0.0395,0.0427,0.0466,0.0422,0.043,0.0345,0.0296,0.0222,0.0144,0.0153,0.0083,0.007,0.01,0.0101,0.009,0.0091,0.0091,0.0091,0.0092,0.0092,0,0.0194,0.0212,0.0253,0.03,0.0321,0.0358,0.0434,0.0478,0.0492,0.0538,0.054,0.0501,0.0433,0.0339,0.0245,0.0177,0.0098,0.0067,0.01,0.0091,0.0035,0.0037,0.0009,0.0008,0.0008,0.0007,0.0007,0,0.0199,0.022,0.0281,0.0319,0.0345,0.0407,0.0464,0.0508,0.0556,0.0579,0.0603,0.0548,0.0505,0.0365,0.0258,0.0114,0.0091,0.0042,0.0038,0.0037,0.0027,0.003,0.0033,0.0006,0.0006,0.0006,0.0005,0,0.0215,0.0235,0.0274,0.0352,0.0416,0.0493,0.0567,0.0603,0.0653,0.0664,0.0656,0.0575,0.0499,0.0372,0.0259,0.0155,0.007,0.0036,0.0036,0.0032,0.0033,0.0025,0.0028,0.0004,0.0004,0.0004,0.0004,0,0.0229,0.026,0.0317,0.0387,0.0469,0.0553,0.0591,0.0649,0.0694,0.0706,0.0699,0.0607,0.0553,0.0393,0.029,0.0185,0.0154,0.0111,0.0107,0.0107,0.0144,0.0161,0.0162,0,0,0,0,0,0.0243,0.0287,0.0355,0.0442,0.0525,0.0575,0.0656,0.0689,0.0721,0.0725,0.0715,0.064,0.0483,0.0415,0.031,0.0272,0.0132,0.0143,0.0078,-0.0007,-0.0005,0.002,0,0,0,0,0,0,0.0258,0.0316,0.0355,0.0474,0.054,0.0645,0.0693,0.0718,0.0718,0.072,0.0642,0.0604,0.0455,0.0546,0.0305,0.0273,0.0214,0.0074,0.0071,-0.0008,-0.0006,-0.0004,0.0022,0,0,0,0,0]}]]